ECGH5 LEPA-LEPA

Flight info

Callsign ECGH5
Flight time 0h 48m
Altitude 3000
Route TRAFFIC PATTERNS AND VFR
Aircraft DA42/L-SBDGRY/S

Departure

Time 2026-05-07 18:01
Airport Palma de Mallorca Airport (LEPA)

Arrival

Time 2026-05-07 18:50
Airport Palma de Mallorca Airport (LEPA)
Time Latitude Longitude Altitude Speed Heading
2026-05-07 17:36 39.54160 2.72681 31 ft 0 kts 195°
2026-05-07 17:51 39.54162 2.72700 31 ft 6 kts 58°
2026-05-07 17:51 39.54174 2.72738 31 ft 3 kts 76°
2026-05-07 17:52 39.54178 2.72756 31 ft 0 kts 66°
2026-05-07 17:52 39.54198 2.72802 31 ft 11 kts 58°
2026-05-07 17:52 39.54211 2.72867 31 ft 0 kts 111°
2026-05-07 17:54 39.54208 2.72875 31 ft 6 kts 117°
2026-05-07 17:54 39.54148 2.72916 31 ft 9 kts 137°
2026-05-07 17:54 39.54134 2.72937 31 ft 0 kts 124°
2026-05-07 17:59 39.54133 2.72940 31 ft 3 kts 121°
2026-05-07 18:00 39.54116 2.73007 31 ft 10 kts 96°
2026-05-07 18:00 39.54112 2.73130 31 ft 16 kts 72°
2026-05-07 18:00 39.54187 2.73300 30 ft 41 kts 58°
2026-05-07 18:00 39.54422 2.73798 29 ft 84 kts 57°
2026-05-07 18:01 39.54768 2.74484 151 ft 96 kts 54°
2026-05-07 18:01 39.55134 2.75222 408 ft 99 kts 56°
2026-05-07 18:01 39.55515 2.75953 727 ft 94 kts 54°
2026-05-07 18:01 39.55889 2.76678 906 ft 100 kts 53°
2026-05-07 18:02 39.56088 2.78347 1383 ft 117 kts 121°
2026-05-07 18:02 39.55392 2.78958 1617 ft 118 kts 147°
2026-05-07 18:02 39.54678 2.79436 1699 ft 117 kts 147°
2026-05-07 18:03 39.53957 2.79860 1861 ft 112 kts 153°
2026-05-07 18:03 39.53158 2.79933 1928 ft 126 kts 189°
2026-05-07 18:03 39.52442 2.79219 2007 ft 141 kts 234°
2026-05-07 18:03 39.52026 2.78051 2164 ft 140 kts 243°
2026-05-07 18:04 39.51596 2.76941 2304 ft 140 kts 240°
2026-05-07 18:04 39.51173 2.75817 2423 ft 138 kts 241°
2026-05-07 18:04 39.50690 2.74723 2449 ft 142 kts 235°
2026-05-07 18:04 39.50185 2.73649 2516 ft 134 kts 235°
2026-05-07 18:05 39.49714 2.72638 2417 ft 125 kts 234°
2026-05-07 18:05 39.49298 2.71774 2349 ft 101 kts 235°
2026-05-07 18:05 39.48942 2.70982 2141 ft 101 kts 247°
2026-05-07 18:05 39.48855 2.70072 2032 ft 106 kts 279°
2026-05-07 18:06 39.49125 2.69231 2062 ft 98 kts 310°
2026-05-07 18:06 39.49558 2.68549 1868 ft 100 kts 320°
2026-05-07 18:06 39.50088 2.67961 1459 ft 94 kts 334°
2026-05-07 18:06 39.50675 2.67697 1169 ft 87 kts
2026-05-07 18:07 39.51216 2.67930 953 ft 83 kts 34°
2026-05-07 18:07 39.51665 2.68375 903 ft 77 kts 49°
2026-05-07 18:07 39.51996 2.68882 846 ft 74 kts 52°
2026-05-07 18:07 39.52308 2.69427 805 ft 75 kts 52°
2026-05-07 18:08 39.52605 2.69951 796 ft 71 kts 57°
2026-05-07 18:08 39.52876 2.70511 666 ft 76 kts 55°
2026-05-07 18:08 39.53146 2.71065 598 ft 70 kts 59°
2026-05-07 18:08 39.53401 2.71603 439 ft 71 kts 56°
2026-05-07 18:09 39.53669 2.72187 322 ft 74 kts 57°
2026-05-07 18:09 39.53923 2.72726 186 ft 72 kts 59°
2026-05-07 18:09 39.54173 2.73254 113 ft 67 kts 58°
2026-05-07 18:09 39.54410 2.73757 39 ft 64 kts 59°
2026-05-07 18:10 39.54642 2.74243 37 ft 71 kts 58°
2026-05-07 18:10 39.54903 2.74797 244 ft 74 kts 57°
2026-05-07 18:10 39.55185 2.75373 476 ft 77 kts 58°
2026-05-07 18:10 39.55467 2.75961 663 ft 76 kts 55°
2026-05-07 18:11 39.55788 2.76587 803 ft 90 kts 53°
2026-05-07 18:11 39.56017 2.77061 1003 ft 95 kts 57°
2026-05-07 18:11 39.56527 2.78078 1338 ft 111 kts 59°
2026-05-07 18:11 39.56508 2.79075 1559 ft 127 kts 120°
2026-05-07 18:12 39.55761 2.79751 1796 ft 136 kts 148°
2026-05-07 18:12 39.54911 2.80315 2023 ft 136 kts 148°
2026-05-07 18:12 39.54037 2.80787 2123 ft 140 kts 163°
2026-05-07 18:12 39.53097 2.80426 2141 ft 157 kts 223°
2026-05-07 18:13 39.52565 2.79169 2170 ft 157 kts 245°
2026-05-07 18:13 39.52153 2.77883 2116 ft 152 kts 245°
2026-05-07 18:13 39.51779 2.76698 2215 ft 134 kts 246°
2026-05-07 18:13 39.51456 2.75573 2136 ft 133 kts 247°
2026-05-07 18:14 39.51115 2.74448 1876 ft 133 kts 246°
2026-05-07 18:14 39.50749 2.73344 1538 ft 132 kts 244°
2026-05-07 18:14 39.50350 2.72309 1432 ft 121 kts 240°
2026-05-07 18:14 39.49959 2.71400 1412 ft 111 kts 236°
2026-05-07 18:15 39.49550 2.70564 1347 ft 108 kts 234°
2026-05-07 18:15 39.49100 2.69773 1266 ft 111 kts 230°
2026-05-07 18:15 39.48551 2.68984 1189 ft 125 kts 222°
2026-05-07 18:15 39.47919 2.68146 1294 ft 133 kts 221°
2026-05-07 18:16 39.47251 2.67269 1420 ft 141 kts 223°
2026-05-07 18:16 39.46596 2.66295 1547 ft 145 kts 237°
2026-05-07 18:16 39.46243 2.65111 1790 ft 139 kts 261°
2026-05-07 18:16 39.46259 2.63847 1857 ft 143 kts 289°
2026-05-07 18:17 39.46779 2.62806 1967 ft 137 kts 323°
2026-05-07 18:17 39.47565 2.62092 1983 ft 142 kts 337°
2026-05-07 18:17 39.48479 2.61944 2105 ft 129 kts 27°
2026-05-07 18:17 39.49106 2.62742 2061 ft 133 kts 56°
2026-05-07 18:18 39.49646 2.63751 1973 ft 138 kts 56°
2026-05-07 18:18 39.50174 2.64768 1863 ft 130 kts 57°
2026-05-07 18:18 39.50647 2.65736 1656 ft 125 kts 59°
2026-05-07 18:18 39.51094 2.66711 1370 ft 127 kts 59°
2026-05-07 18:19 39.51550 2.67675 1126 ft 124 kts 58°
2026-05-07 18:19 39.52009 2.68606 855 ft 122 kts 57°
2026-05-07 18:19 39.52430 2.69504 735 ft 110 kts 59°
2026-05-07 18:19 39.52814 2.70333 690 ft 108 kts 57°
2026-05-07 18:20 39.53226 2.71137 776 ft 113 kts 55°
2026-05-07 18:20 39.53668 2.72015 830 ft 118 kts 57°
2026-05-07 18:20 39.54099 2.72929 939 ft 122 kts 56°
2026-05-07 18:20 39.54518 2.73871 1287 ft 117 kts 60°
2026-05-07 18:21 39.54957 2.74757 1624 ft 119 kts 57°
2026-05-07 18:21 39.55379 2.75716 1835 ft 124 kts 60°
2026-05-07 18:21 39.55763 2.76741 1964 ft 135 kts 76°
2026-05-07 18:21 39.55635 2.77977 2071 ft 141 kts 112°
2026-05-07 18:22 39.54919 2.78830 2022 ft 151 kts 164°
2026-05-07 18:22 39.54285 2.78467 1965 ft 164 kts 224°
2026-05-07 18:22 39.53508 2.76795 1922 ft 165 kts 239°
2026-05-07 18:22 39.52932 2.75609 1881 ft 138 kts 223°
2026-05-07 18:23 39.52212 2.75213 1940 ft 103 kts 158°
2026-05-07 18:23 39.51958 2.75899 1863 ft 92 kts 64°
2026-05-07 18:23 39.52555 2.76077 1820 ft 106 kts 335°
2026-05-07 18:23 39.52918 2.75237 1774 ft 113 kts 271°
2026-05-07 18:24 39.52600 2.74340 1655 ft 115 kts 215°
2026-05-07 18:24 39.51943 2.74279 1630 ft 90 kts 129°
2026-05-07 18:24 39.52016 2.74910 1563 ft 87 kts 32°
2026-05-07 18:24 39.52429 2.74850 1544 ft 102 kts 331°
2026-05-07 18:25 39.52383 2.73695 1414 ft 118 kts 215°
2026-05-07 18:25 39.51745 2.73663 1429 ft 86 kts 123°
2026-05-07 18:25 39.51804 2.74300 1431 ft 81 kts 41°
2026-05-07 18:25 39.52394 2.74281 1427 ft 102 kts 330°
2026-05-07 18:26 39.52519 2.73370 1318 ft 119 kts 234°
2026-05-07 18:26 39.51859 2.73144 1246 ft 98 kts 139°
2026-05-07 18:26 39.51676 2.73873 1316 ft 85 kts 71°
2026-05-07 18:26 39.51944 2.74236 1348 ft 89 kts 31°
2026-05-07 18:27 39.52715 2.73827 1393 ft 113 kts 294°
2026-05-07 18:27 39.52404 2.73016 1282 ft 106 kts 198°
2026-05-07 18:27 39.51821 2.72544 1097 ft 98 kts 227°
2026-05-07 18:27 39.51559 2.72055 1054 ft 100 kts 233°
2026-05-07 18:28 39.50967 2.71124 1036 ft 101 kts 225°
2026-05-07 18:28 39.50767 2.70319 922 ft 100 kts 302°
2026-05-07 18:28 39.51266 2.69867 936 ft 84 kts 338°
2026-05-07 18:28 39.51805 2.69606 901 ft 80 kts 11°
2026-05-07 18:29 39.52266 2.69959 878 ft 79 kts 39°
2026-05-07 18:29 39.52679 2.70418 835 ft 80 kts 44°
2026-05-07 18:29 39.53034 2.70947 780 ft 77 kts 52°
2026-05-07 18:29 39.53354 2.71519 638 ft 81 kts 55°
2026-05-07 18:30 39.53641 2.72122 391 ft 74 kts 57°
2026-05-07 18:30 39.53884 2.72660 215 ft 69 kts 56°
2026-05-07 18:30 39.54151 2.73219 158 ft 77 kts 58°
2026-05-07 18:30 39.54423 2.73792 57 ft 72 kts 60°
2026-05-07 18:31 39.54651 2.74277 32 ft 62 kts 58°
2026-05-07 18:31 39.54926 2.74834 120 ft 74 kts 57°
2026-05-07 18:31 39.55195 2.75402 310 ft 73 kts 56°
2026-05-07 18:31 39.55497 2.76004 447 ft 81 kts 54°
2026-05-07 18:32 39.55803 2.76633 672 ft 81 kts 60°
2026-05-07 18:32 39.55865 2.77350 890 ft 87 kts 109°
2026-05-07 18:32 39.55373 2.77893 1050 ft 96 kts 141°
2026-05-07 18:32 39.54754 2.78314 1204 ft 102 kts 142°
2026-05-07 18:33 39.54191 2.78811 1447 ft 101 kts 134°
2026-05-07 18:33 39.53495 2.79082 1731 ft 121 kts 185°
2026-05-07 18:33 39.52700 2.78623 2022 ft 131 kts 201°
2026-05-07 18:33 39.51866 2.78081 2314 ft 134 kts 200°
2026-05-07 18:34 39.51055 2.77527 2693 ft 134 kts 201°
2026-05-07 18:34 39.50124 2.76993 2704 ft 153 kts 197°
2026-05-07 18:34 39.49093 2.76530 2798 ft 158 kts 190°
2026-05-07 18:34 39.48083 2.76229 3172 ft 148 kts 188°
2026-05-07 18:35 39.47400 2.76007 3180 ft 156 kts 188°
2026-05-07 18:35 39.46023 2.75799 3617 ft 139 kts 176°
2026-05-07 18:35 39.45039 2.75715 3769 ft 143 kts 176°
2026-05-07 18:35 39.44092 2.75646 4032 ft 137 kts 176°
2026-05-07 18:36 39.43071 2.75676 4054 ft 150 kts 173°
2026-05-07 18:36 39.42014 2.75555 4144 ft 160 kts 195°
2026-05-07 18:36 39.41267 2.74427 4189 ft 168 kts 244°
2026-05-07 18:36 39.40907 2.73034 4521 ft 159 kts 252°
2026-05-07 18:37 39.40631 2.71635 4675 ft 163 kts 252°
2026-05-07 18:37 39.40281 2.70192 4646 ft 171 kts 250°
2026-05-07 18:37 39.39933 2.68733 4489 ft 168 kts 250°
2026-05-07 18:37 39.39606 2.67343 3964 ft 158 kts 251°
2026-05-07 18:38 39.39303 2.65988 3296 ft 147 kts 254°
2026-05-07 18:38 39.39046 2.64810 2844 ft 129 kts 255°
2026-05-07 18:38 39.38918 2.64101 2610 ft 118 kts 258°
2026-05-07 18:38 39.38609 2.62640 2351 ft 125 kts 249°
2026-05-07 18:39 39.38305 2.61605 2101 ft 121 kts 246°
2026-05-07 18:39 39.37977 2.60608 1901 ft 123 kts 244°
2026-05-07 18:39 39.37921 2.59540 1830 ft 120 kts 286°
2026-05-07 18:39 39.38177 2.58549 1790 ft 117 kts 290°
2026-05-07 18:40 39.38436 2.57536 1786 ft 117 kts 284°
2026-05-07 18:40 39.38640 2.56517 1645 ft 120 kts 285°
2026-05-07 18:40 39.38839 2.55459 1661 ft 120 kts 288°
2026-05-07 18:40 39.39007 2.54405 1750 ft 123 kts 283°
2026-05-07 18:41 39.39119 2.53258 1711 ft 129 kts 279°
2026-05-07 18:41 39.39159 2.52129 1792 ft 131 kts 272°
2026-05-07 18:41 39.39161 2.50970 1913 ft 126 kts 275°
2026-05-07 18:41 39.39306 2.49842 1942 ft 127 kts 297°
2026-05-07 18:42 39.39915 2.49131 2024 ft 115 kts 350°
2026-05-07 18:42 39.40670 2.49219 2058 ft 112 kts 27°
2026-05-07 18:42 39.41360 2.49780 1900 ft 123 kts 40°
2026-05-07 18:42 39.41812 2.50678 1760 ft 124 kts 66°
2026-05-07 18:43 39.42104 2.51772 1511 ft 128 kts 75°
2026-05-07 18:43 39.42430 2.52765 1457 ft 122 kts 49°
2026-05-07 18:43 39.42631 2.53020 1487 ft 119 kts 41°
2026-05-07 18:43 39.44040 2.53557 1322 ft 127 kts 19°
2026-05-07 18:44 39.44826 2.54036 1269 ft 124 kts 44°
2026-05-07 18:44 39.45189 2.54593 1303 ft 122 kts 60°
2026-05-07 18:44 39.45579 2.55566 1265 ft 122 kts 63°
2026-05-07 18:44 39.46010 2.56548 1125 ft 128 kts 58°
2026-05-07 18:45 39.46502 2.57519 938 ft 130 kts 54°
2026-05-07 18:45 39.47083 2.58408 810 ft 129 kts 47°
2026-05-07 18:45 39.47729 2.59235 568 ft 134 kts 43°
2026-05-07 18:45 39.48614 2.60134 425 ft 115 kts 32°
2026-05-07 18:46 39.49229 2.60740 402 ft 104 kts 49°
2026-05-07 18:46 39.49506 2.61247 392 ft 102 kts 59°
2026-05-07 18:46 39.49869 2.62012 408 ft 100 kts 46°
2026-05-07 18:46 39.50401 2.62569 407 ft 98 kts 41°
2026-05-07 18:47 39.50718 2.62993 418 ft 97 kts 51°
2026-05-07 18:47 39.51269 2.63971 510 ft 106 kts 56°
2026-05-07 18:47 39.51674 2.64751 600 ft 101 kts 56°
2026-05-07 18:47 39.52065 2.65532 640 ft 106 kts 56°
2026-05-07 18:48 39.52457 2.66325 686 ft 102 kts 58°
2026-05-07 18:48 39.52834 2.67111 701 ft 105 kts 57°
2026-05-07 18:48 39.53205 2.67929 621 ft 106 kts 58°
2026-05-07 18:48 39.53595 2.68687 592 ft 89 kts 56°
2026-05-07 18:49 39.53903 2.69340 482 ft 83 kts 57°
2026-05-07 18:49 39.54190 2.69949 349 ft 74 kts 57°
2026-05-07 18:49 39.54451 2.70529 182 ft 72 kts 53°
2026-05-07 18:49 39.54725 2.71092 63 ft 74 kts 56°
2026-05-07 18:50 39.54971 2.71606 21 ft 58 kts 56°
2026-05-07 18:50 39.55138 2.71966 22 ft 41 kts 57°
2026-05-07 18:50 39.55270 2.72239 20 ft 17 kts 59°
2026-05-07 18:50 39.55268 2.72340 18 ft 10 kts 139°
2026-05-07 18:51 39.55218 2.72383 19 ft 8 kts 147°
2026-05-07 18:51 39.55177 2.72418 20 ft 6 kts 147°
2026-05-07 18:51 39.55168 2.72455 21 ft 3 kts 68°
2026-05-07 18:51 39.55182 2.72491 21 ft 13 kts 60°
2026-05-07 18:52 39.55258 2.72652 21 ft 28 kts 60°
2026-05-07 18:52 39.55354 2.72857 21 ft 22 kts 56°
2026-05-07 18:52 39.55423 2.73010 21 ft 18 kts 59°
2026-05-07 18:52 39.55482 2.73136 21 ft 15 kts 58°
2026-05-07 18:53 39.55537 2.73244 21 ft 14 kts 58°
2026-05-07 18:53 39.55582 2.73348 21 ft 12 kts 75°
2026-05-07 18:53 39.55624 2.73438 21 ft 12 kts 60°
2026-05-07 18:53 39.55602 2.73515 22 ft 11 kts 148°
2026-05-07 18:54 39.55531 2.73571 24 ft 13 kts 150°
2026-05-07 18:54 39.55455 2.73637 27 ft 13 kts 145°
2026-05-07 18:54 39.55373 2.73696 30 ft 14 kts 146°
2026-05-07 18:54 39.55286 2.73770 30 ft 16 kts 151°
2026-05-07 18:55 39.55183 2.73848 30 ft 18 kts 147°
2026-05-07 18:55 39.55080 2.73929 30 ft 14 kts 149°
2026-05-07 18:55 39.54993 2.73996 30 ft 16 kts 149°
2026-05-07 18:55 39.54898 2.74069 30 ft 15 kts 146°
2026-05-07 18:56 39.54814 2.74127 31 ft 11 kts 188°
2026-05-07 18:56 39.54751 2.74054 30 ft 14 kts 245°
2026-05-07 18:56 39.54702 2.73948 30 ft 13 kts 239°
2026-05-07 18:56 39.54660 2.73856 31 ft 0 kts 239°
2026-05-07 18:57 39.54650 2.73834 30 ft 6 kts 241°
2026-05-07 18:57 39.54626 2.73779 30 ft 7 kts 239°
2026-05-07 18:58 39.54599 2.73721 30 ft 8 kts 241°
2026-05-07 18:58 39.54571 2.73656 30 ft 9 kts 234°
2026-05-07 18:58 39.54543 2.73604 30 ft 7 kts 237°
2026-05-07 18:58 39.54518 2.73549 30 ft 7 kts 235°
2026-05-07 18:59 39.54488 2.73495 30 ft 8 kts 242°
2026-05-07 18:59 39.54462 2.73434 30 ft 6 kts 239°
2026-05-07 18:59 39.54462 2.73432 30 ft 0 kts 239°
2026-05-07 19:00 39.54447 2.73400 30 ft 7 kts 239°
2026-05-07 19:00 39.54410 2.73323 30 ft 13 kts 238°
2026-05-07 19:00 39.54356 2.73207 30 ft 13 kts 240°
2026-05-07 19:00 39.54335 2.73165 30 ft 1 kts 240°
2026-05-07 19:01 39.54329 2.73152 30 ft 2 kts 240°
2026-05-07 19:01 39.54324 2.73142 30 ft 0 kts 239°
2026-05-07 19:01 39.54319 2.73131 30 ft 3 kts 240°
2026-05-07 19:01 39.54306 2.73102 30 ft 4 kts 238°
2026-05-07 19:02 39.54290 2.73069 31 ft 5 kts 240°
2026-05-07 19:02 39.54271 2.73031 31 ft 5 kts 235°
2026-05-07 19:02 39.54248 2.72991 31 ft 6 kts 233°
2026-05-07 19:02 39.54230 2.72946 31 ft 6 kts 239°
2026-05-07 19:03 39.54212 2.72898 31 ft 6 kts 273°
2026-05-07 19:03 39.54216 2.72847 31 ft 6 kts 259°
2026-05-07 19:03 39.54197 2.72801 31 ft 6 kts 238°
2026-05-07 19:03 39.54175 2.72763 31 ft 3 kts 160°
2026-05-07 19:04 39.54157 2.72778 31 ft 3 kts 148°
2026-05-07 19:04 39.54148 2.72787 31 ft 0 kts 108°
2026-05-07 19:04 39.54148 2.72792 31 ft 1 kts 58°
2026-05-07 19:04 39.54148 2.72793 31 ft 0 kts 55°